Location: *
(51.0333°S, 178.4667°E)
Time: 22:01:33
(UTC+00:00)

SJ-11-01 - Pass Details

Date: 15 November 2019
Orbit: 685 x 700 km, 98.0° (Epoch: 15 December)

Event Time Altitude Azimuth Distance (km) Brightness Sun altitude
Rises 08:38:57 0° 166° (SSE) 3,123 8.1 -8.8°
Reaches altitude 10° 08:41:14 10° 165° (SSE) 2,195 7.3 -9.1°
Maximum altitude 08:46:04 87° 75° (ENE) 713 4.3 -9.6°
Drops below altitude 10° 08:50:49 10° 345° (NNW) 2,157 6.5 -10.1°
Sets 08:53:03 0° 345° (NNW) 3,064 7.3 -10.4°
